Location: Aragoneses
(41.0275°N, 4.3847°W)
Time: 23:29:04
(UTC+00:00)

SPOT 1/Viking Rocket - Visible Passes

Search period start: 14 March 2026 00:00
Search period end: 24 March 2026 00:00
Orbit: 773 x 788 km, 98.2° (Epoch: 14 March)

Date Brightness Start Highest point End Pass type
(mag) Time Alt. Az. Time Alt. Az. Time Alt. Az.
14 Mar 5.2 18:58:16 10° SSW 19:03:02 38° W 19:07:52 10° NNW visible
16 Mar 6.5 19:34:39 10° SW 19:38:08 18° W 19:41:40 10° NW visible
17 Mar 5.4 19:00:55 10° SSW 19:05:37 36° W 19:10:24 10° NNW visible
19 Mar 6.5 19:37:25 10° SW 19:40:44 17° W 19:44:05 10° NW visible
20 Mar 5.5 19:03:33 10° SSW 19:08:13 34° W 19:12:55 10° NNW visible
22 Mar 6.6 19:40:13 10° SW 19:43:20 16° W 19:46:29 10° NW visible
23 Mar 5.6 19:06:13 10° SSW 19:10:47 32° W 19:15:25 10° NNW visible
